Estación Meteorológica Peña el Pijo (Robertgarden) [ 09/30/20 11:19:11 CEST ]

Fecha Hora Presion(HPa) Temp (°C) Humedad % Rocio (°C) Viento ( m/s) Direccion Lluvia 1Hora(mm) Lluvia 24H(mm) LLuvia Total(mm)
2020-Mar-11 01:09:27 1016.200 - - - - N     39.88
2020-Mar-11 02:09:37 1016.200 - - - - N     39.88
2020-Mar-11 03:11:06 1016.000 - - - - N     39.88
2020-Mar-11 04:09:30 1015.600 - - - - N     39.88
2020-Mar-11 05:09:08 1015.300 - - - - N     39.88
2020-Mar-11 06:08:55 1015.200 - - - - N     39.88
2020-Mar-11 07:09:30 1015.500 - - - - N     39.88
2020-Mar-11 08:08:56 1015.600 - - - - N     39.88
2020-Mar-11 09:08:58 1015.800 - - - - N     39.88
2020-Mar-11 10:09:30 1015.500 - - - - N     39.88
2020-Mar-11 11:09:23 1015.500 - - - - N     39.88
2020-Mar-11 12:08:55 1015.200 - - - - N     39.88
2020-Mar-11 13:08:44 1014.600 - - - - N     39.88
2020-Mar-11 14:09:19 1013.800 - - - - N     39.88
2020-Mar-11 15:09:25 1013.200 - - - - N     39.88
2020-Mar-11 16:09:13 1013.100 - - - - N     39.88
2020-Mar-11 17:09:31 1012.800 - - - - N     39.88
2020-Mar-11 18:09:18 1012.900 - - - - N     39.88
2020-Mar-11 19:09:21 1013.300 - - - - N     39.88
2020-Mar-11 20:08:57 1013.800 - - - - N     39.88
2020-Mar-11 21:08:55 1014.300 - - - - N     39.88
2020-Mar-11 22:09:16 1014.400 - - - - N     39.88
2020-Mar-11 23:09:35 1014.800 - - - - N     39.88

Temperatura Máxima:    Temperatura Mínima:
Presión Máxima:1016.200 Hpa    Presión Mínima:1012.800 Hpa


Volver